Regional Weather Roundup
Issued by NWS

Home | Current Version | Previous Version | Graphics & Text | Print | Product List | Glossary On
Versions: 1 2 3 4 5 6 7 8 9 10 11 12 13 14 15 16 17 18 19 20 21 22 23 24 25 26 27 28 29 30 31 32 33 34 35 36 37 38 39 40 41 42 43 44 45 46 47 48 49 50
000
ASUS43 KMKX 050121
RWRWI

WISCONSIN REGIONAL WEATHER ROUNDUP
NATIONAL WEATHER SERVICE MILWAUKEE/SULLIVAN WI
800 PM CDT TUE AUG 04 2015

NOTE: "FAIR" INDICATES FEW OR NO CLOUDS BELOW 12,000 FEET WITH NO
SIGNIFICANT WEATHER AND/OR OBSTRUCTIONS TO VISIBILITY.

WIZ001-002-006>008-014>016-023>028-050200-
NORTHWEST WISCONSIN

CITY           SKY/WX    TMP DP  RH WIND       PRES   REMARKS
SUPERIOR ARPT  CLEAR     58  53  81 NE3       30.00S
ASHLAND        CLEAR     63  54  72 E6        30.02R
HAYWARD        MOCLDY    68  55  63 NE6       30.00R
SIREN          CLEAR     71  54  54 N3        29.99R
CUMBERLAND     CLEAR     70  54  56 N3        29.99S
RICE LAKE      PTCLDY    71  55  56 CALM      30.00R
CHETEK         PTCLDY    72  56  57 CALM      29.99R
LADYSMITH      CLEAR     70  58  66 N3        30.00S
EAU CLAIRE     CLEAR     72  56  57 NW3       29.97R
MENOMONIE      CLEAR     73  54  51 CALM      29.98S
NEW RICHMOND   CLEAR     71  55  56 N3        29.99S
OSCEOLA        CLEAR     74  56  53 CALM      30.01R
$$

WIZ003>005-009-010-017-018-050200-
NORTH CENTRAL WISCONSIN

CITY           SKY/WX    TMP DP  RH WIND       PRES   REMARKS
MANITOWISH WTR CLEAR     62  50  64 N3        30.02R
ARBOR VITAE    CLOUDY    63  53  68 N5        30.02R
WOODRUFF       CLOUDY    63  53  68 N5        30.02R
RHINELANDER    MOCLDY    65  52  62 CALM      30.02R
EAGLE RIVER    MOCLDY    62  47  58 N3        30.01S
LAND O LAKES   CLEAR     62  49  63 N7        30.03R
PHILLIPS       CLEAR     64  54  71 NE7       30.01R
TOMAHAWK       MOCLDY    63  54  74 CALM      30.01R
MEDFORD        CLEAR     66  55  66 W3        30.00R
MERRILL        NOT AVBL
$$

WIZ029-030-035-036-043>047-050200-
CENTRAL WISCONSIN

CITY           SKY/WX    TMP DP  RH WIND       PRES   REMARKS
WAUSAU         PTCLDY    71  51  49 N6        29.97R
MOSINEE        CLEAR     70  54  56 NW6       29.99S
MARSHFIELD     CLEAR     70  53  54 NW5       29.99R
STEVENS POINT  CLEAR     69  52  54 NW3       29.99R
WAUPACA        CLEAR     73  52  48 NW3       29.97R
WAUTOMA        CLEAR     74  53  47 N3        29.98R
WISC RAPIDS    CLEAR     72  51  47 NW5       29.99R
CAMP DOUGLAS   CLEAR     69  61  75 W2        29.98R
$$

WIZ011>013-019>022-031-037>040-048>050-050200-
NORTHEAST WISCONSIN

CITY           SKY/WX    TMP DP  RH WIND       PRES   REMARKS
ANTIGO         MOCLDY    64  56  75 N3        30.00R
SHAWANO        MOCLDY    71  54  56 N3        29.97R
OCONTO         CLOUDY    66  60  80 E6        29.97R
STURGEON BAY   MOCLDY    64  55  72 E5        30.00R
GREEN BAY      PTCLDY    69  56  62 NW7       29.95R
MANITOWOC      CLEAR     68  61  78 MISG      29.96R
APPLETON       PTCLDY    72  52  49 NW6       29.96S
CLINTONVILLE   PTCLDY    70  52  52 N3        29.97R
OSHKOSH        CLEAR     72  53  51 NW5       29.96R
$$

WIZ032>034-041-042-053>061-050200-
SOUTHWEST WISCONSIN

CITY           SKY/WX    TMP DP  RH WIND       PRES   REMARKS
LA CROSSE      CLEAR     76  55  48 W6        29.98R
SPARTA         CLEAR     72  53  50 CALM      30.00R
VIROQUA        CLEAR     69  58  68 CALM      30.02R
BOSCOBEL       PTCLDY    73  59  61 CALM      29.99R
PRAIRIE DU CHI PTCLDY    72  56  57 CALM      30.00R
PLATTEVILLE    PTCLDY    71  56  58 W3        30.01R
$$

WIZ056-057-062-063-064-067-068-050200-
SOUTH CENTRAL WISCONSIN

CITY           SKY/WX    TMP DP  RH WIND       PRES   REMARKS
REEDSBURG      CLEAR     73  54  49 W3        29.98R
BARABOO/DELLS  MOCLDY    74  49  42 W5        29.99R
LONE ROCK      CLEAR     70  59  68 CALM      29.99R
MINERAL POINT  PTCLDY    72  54  53 CALM      30.01R
MADISON        MOCLDY    72  56  57 CALM      29.98R
MIDDLETON      CLEAR     71  55  56 CALM      29.99R
WATERTOWN      PTCLDY    73  55  53 CALM      29.97R
MONROE         PTCLDY    72  55  56 W6        30.00R
JANESVILLE     PTCLDY    73  54  49 NW3       29.97R
$$

WIZ051-052-058>065-066-070>072-050200-
SOUTHEAST WISCONSIN

CITY           SKY/WX    TMP DP  RH WIND       PRES   REMARKS
MILWAUKEE      MOCLDY    71  56  58 S7        29.97R
WAUKESHA       PTCLDY    72  52  49 NW3       29.98R
MILWAUKEE/TIMM CLEAR     73  46  38 NW8       29.96R
RACINE         MOCLDY    71  56  58 S7        29.99R
BURLINGTON     PTCLDY    69  53  55 W3        29.98R
KENOSHA        PTCLDY    71  56  58 E7        29.98R
FOND DU LAC    CLEAR     72  54  53 NW5       29.96R
SHEBOYGAN      CLEAR     70  54  56 NW3       29.95R
WEST BEND      CLEAR     70  52  52 NW3       29.97R
JUNEAU         PTCLDY    71  54  55 CALM      29.98R
$$

LSZ147-162-050200-
LAKE SUPERIOR

STATION/POSITION TIME  TEMP    WIND        PRES    WAVE
                       AIR SEA DIR/SP/G            HT/PER
                 (UTC) (F)     (DEG/KT/KT) (MB)    (FT/S)
W MID LAKE BUOY  0050   59 58  210/  4/  6 1016.3R   0
DEVILS ISLAND    0100   62      90/  7/  7 1016.6R
PORT WING        0000   71      60/  8/ 11 1015.9S
SAXON HARBOR     0000   67      50/  4/  5 1015.9
$$

LMZ867-665-643>646-050200-
LAKE MICHIGAN

STATION/POSITION TIME  TEMP    WIND        PRES    WAVE
                       AIR SEA DIR/SP/G            HT/PER
                 (UTC) (F)     (DEG/KT/KT) (MB)    (FT/S)
CHAMBERS ISLAND  0000   67      30/  6/  7 1014.6R
N MID LAKE BUOY  0050   63 69  340/  8/ 10 1014.9R   0
NORTHPORT PIER   0000   67      80/  3/  3 1014.6R
SISTER BAY       0018   69     130/  4/  6   N/A
ALGOMA LAKESHORE 0012           70/  6/  6   N/A
KEWAUNEE LAKESHO 0000   65     190/  8/  9 1013.4R
SHEBOYGAN LAKESH 0100   74     310/  7/  8 1014.4R
PORT WASHINGTON  0000   78     310/  5/  9 1014.2S
ATWATER BUOY     0100   69 67  180/  8/  8 1016.1R
MILWAUKEE LAKESH 0100   67     160/  9/ 10   N/A
KENOSHA   LAKESH 0100   69     180/  4/  6 1014.6R
$$

TC  - TEMPERATURE IN CELSIUS
VSB - VISIBILITY IN STATUTE MILES
WCI - WIND CHILL INDEX
HX  - HEAT INDEX




USA.gov is the U.S. government's official web portal to all federal, state and local government web resources and services.